Dewpoint
55 55 55 54 53 53 55 54 54 55 55 55 54 55 55 56 55 55 54 54 54 53 53 52 52 51 50 49 49 46 47 49 48 48 48 48 48 48 47 47 48 47
55 55 54 54 53 53 53 55 55 54 55 56 55 55 56 56 57 55 54 54 53 53 52 52 51 49 48 47 48 47 47 48 48 48 49 48 48 48 48 48 47 47
54 54 54 54 53 54 54 55 55 55 54 56 57 57 56 57 56 55 54 54 53 53 52 51 50 48 48 48 48 47 47 47 48 47 47 47 47 46 47 47 46 47
53 54 54 54 54 54 54 53 54 54 54 55 55 56 56 57 56 55 55 54 53 52 52 51 50 49 47 48 48 46 47 47 46 47 46 46 46 45 46 46 45 45
54 53 53 54 53 53 54 53 53 53 53 53 56 56 55 56 56 54 54 53 53 51 51 50 50 49 49 48 47 47 47 46 46 45 44 45 45 45 45 45 44 44
53 51 52 52 53 53 52 52 52 53 53 54 54 54 55 56 54 53 53 53 52 51 50 49 48 48 48 48 48 47 46 44 45 44 42 43 43 44 41 45 44 43
52 52 53 52 53 53 53 52 53 53 53 53 53 54 55 55 54 53 51 52 51 49 48 48 48 48 48 48 46 46 45 44 44 42 41 41 42 43 42 43 41 41
53 53 53 52 53 54 53 52 52 52 53 52 53 53 54 53 53 54 52 51 50 48 47 46 46 46 47 47 45 45 46 46 45 42 41 41 43 40 42 42 43 40
53 53 53 54 54 53 53 52 52 53 52 52 52 53 53 53 53 53 52 50 49 48 46 46 45 46 47 46 45 43 42 44 45 43 42 42 42 41 38 40 41 41
53 53 55 54 53 53 53 53 53 53 52 52 51 52 51 53 53 52 51 50 49 46 46 46 45 46 45 44 43 42 42 42 43 43 42 42 41 40 39 41 40 41
54 53 54 54 54 53 54 53 53 52 52 50 51 51 51 52 52 51 50 49 49 46 45 45 45 44 44 44 44 44 43 43 42 41 42 41 41 41 41 41 40 40
53 54 54 54 54 54 53 53 53 52 51 51 50 50 51 51 51 50 49 47 46 45 45 44 44 44 43 42 42 43 44 43 42 42 41 39 39 39 38 39 40 39
52 53 54 54 54 54 54 52 52 52 51 50 50 50 50 50 50 49 49 47 46 46 45 44 44 43 43 43 42 42 42 41 42 41 39 40 39 37 37 38 38 37
53 54 54 54 54 53 53 53 52 52 51 50 50 50 50 49 48 48 49 47 47 45 45 45 45 43 42 42 42 42 41 40 37 38 36 37 39 37 37 37 36 36
54 54 54 54 53 53 52 52 52 51 51 51 51 51 51 50 52 49 48 46 46 46 45 46 44 44 43 42 42 40 37 36 36 34 36 36 36 35 36 36 35 36
50 53 53 53 53 52 52 52 51 51 51 50 48 48 49 50 49 49 48 48 46 45 45 46 45 45 44 41 40 36 34 33 37 36 34 35 35 35 34 34 35 35
50 51 52 53 53 52 52 51 51 51 50 49 48 49 50 48 47 46 48 49 47 45 44 45 45 43 40 39 40 40 36 36 34 35 35 35 34 34 34 34 34 31
48 50 51 52 52 51 51 51 51 49 49 48 48 49 48 49 49 46 46 45 45 44 44 44 43 42 38 38 38 39 39 35 35 35 36 34 33 33 32 32 33 34
48 49 50 51 51 51 51 51 49 48 48 48 48 49 49 48 46 46 46 45 45 43 43 42 41 39 37 38 38 37 38 37 31 34 33 33 33 33 33 33 33 33
47 47 49 50 51 51 51 50 49 48 49 49 49 49 48 47 47 46 45 44 44 43 42 41 39 39 37 38 37 37 36 36 33 34 35 33 33 33 34 33 33 33
46 46 48 50 50 50 50 49 49 49 49 48 48 47 47 46 46 46 45 44 44 43 42 41 37 37 37 37 36 36 35 36 35 36 34 34 34 35 34 34 33 34
45 46 48 49 49 50 50 49 49 49 48 48 47 47 47 45 45 44 44 43 43 42 40 37 36 36 36 36 36 35 35 35 34 34 33 33 33 33 32 32 32 32
44 46 47 48 49 49 49 49 48 48 48 47 46 45 45 44 44 43 43 42 42 41 40 38 34 37 36 36 35 35 35 31 33 31 31 33 33 33 32 32 33 32
44 45 46 48 48 48 49 49 49 48 48 46 45 43 43 43 42 43 42 41 40 39 38 36 35 36 36 35 35 35 34 31 30 30 32 32 32 33 33 32 31 34
44 46 46 48 48 48 49 49 49 48 47 46 46 45 45 45 43 42 42 42 40 40 40 38 36 35 35 35 35 35 35 33 30 30 31 32 32 31 32 31 31 33
45 46 47 48 48 48 49 49 48 46 45 44 44 44 44 44 43 43 43 41 41 40 40 38 36 35 37 35 35 35 36 31 31 30 31 31 31 30 30 31 31 32